Kosmos-1491

operational
NORAD ID: 14259 Int'l Des: 1983-084 Owner: GUKOS Country: SU Constellation: GLONASS
MEOCIRCULAR

About Kosmos-1491

Description loading...

Live Position

Loading 3D Globe...

Upcoming Passes

Altitude History

Altitude vs Time

uPlot chart will show altitude changes over time

Two-Line Element Set

1 14259U 83084B 26057.65045104 .00000023 00000-0 00000+0 0 9993
2 14259 64.9532 61.9432 0020868 304.2155 227.0176 2.15434616333759
Epoch: Feb 26, 2026 • Age: 145 hours

Current Status

Altitude 18975.8 km
Velocity 3.96 km/s
Sub-Earth Point 0.21°N, 171.39°W
Launch Date Aug 10, 1983
Age 42.5 years
Type other

Technical Details

Classification Payload
Mass 1300.00 kg
Dry Mass 1200.00 kg
Total Mass 1300.00 kg
Length 4.00 m
Diameter 1.50 m
Span 7.80 m
Shape Cyl + Ant + 2 Pan
Manufacturer OAZ
Bus Type Uragan
Phase Status In Orbit
Owner/State GUKOS/SU

Large Constellations

Loading constellations...